CW3827 Weather Reports


Display with metric or nautical units.
time (UTC)temp
F
wind
direction
speed
MPH
gust
MPH
rain 1hr
in
rain 24hr
in
rain mn
in
humidity
%
barometer
mb
20260505060032 61 70 15.0 20.0 0.00 0.00 0.00 36 1015.2
20260505054526 61 66 10.0 15.0 0.00 0.00 0.00 35 1015.5
20260505053006 62 30 11.0 20.0 0.00 0.00 0.00 35 1015.8
20260505051503 62 85 11.0 18.0 0.00 0.00 0.00 34 1016.0
20260505041516 65 87 14.0 23.0 0.00 0.00 0.00 28 1015.7
20260505040013 66 84 16.0 22.0 0.00 0.00 0.00 24 1015.7
20260505034508 67 91 15.0 22.0 0.00 0.00 0.00 23 1015.5
20260505033024 67 66 14.0 22.0 0.00 0.00 0.00 22 1015.2
20260505031525 67 23 15.0 24.0 0.00 0.00 0.00 22 1015.1
20260505030020 67 70 18.0 26.0 0.00 0.00 0.00 22 1014.5
20260505024515 67 51 16.0 26.0 0.00 0.00 0.00 22 1014.3
20260505023014 67 39 16.0 25.0 0.00 0.00 0.00 22 1014.1
20260505021508 67 43 16.0 26.0 0.00 0.00 0.00 21 1013.8
20260505020025 67 101 15.0 27.0 0.00 0.00 0.00 20 1013.5
20260505014522 68 36 18.0 26.0 0.00 0.00 0.00 20 1013.5
20260505013020 68 81 15.0 24.0 0.00 0.00 0.00 21 1013.6
20260505011542 68 226 16.0 24.0 0.00 0.00 0.00 22 1013.7
20260505010017 68 65 16.0 25.0 0.00 0.00 0.00 21 1013.9
20260505004512 69 65 17.0 28.0 0.00 0.00 0.00 21 1013.8
20260505003028 69 115 18.0 26.0 0.00 0.00 0.00 22 1013.7
20260505001525 70 72 19.0 27.0 0.00 0.00 0.00 22 1013.9
20260505000032 71 51 19.0 31.0 0.00 0.00 0.00 21 1013.9
20260504234528 70 338 17.0 30.0 0.00 0.00 0.00 23 1014.2
20260504233020 71 23 19.0 28.0 0.00 0.00 0.00 23 1014.3
20260504231525 71 97 18.0 30.0 0.00 0.00 0.00 22 1014.5
20260504230002 71 57 21.0 29.0 0.00 0.00 0.00 23 1014.5
20260504224511 71 24 21.0 32.0 0.00 0.00 0.00 23 1014.9
20260504223006 71 63 18.0 35.0 0.00 0.00 0.00 23 1014.9
20260504221507 71 61 21.0 34.0 0.00 0.00 0.00 22 1015.3
20260504220004 71 125 24.0 35.0 0.00 0.00 0.00 22 1015.4
20260504214506 71 105 21.0 32.0 0.00 0.00 0.00 21 1015.4
20260504213003 71 47 20.0 31.0 0.00 0.00 0.00 22 1015.7
20260504211512 70 72 20.0 29.0 0.00 0.00 0.00 22 1016.0
20260504210012 71 50 24.0 34.0 0.00 0.00 0.00 21 1016.0
20260504204508 71 163 22.0 34.0 0.00 0.00 0.00 22 1016.1
20260504203002 71 30 18.0 28.0 0.00 0.00 0.00 20 1016.3
20260504201504 70 108 16.0 26.0 0.00 0.00 0.00 21 1016.6
20260504200018 70 26 20.0 29.0 0.00 0.00 0.00 22 1016.7
20260504194512 71 72 19.0 30.0 0.00 0.00 0.00 25 1017.0
20260504193011 69 65 20.0 28.0 0.00 0.00 0.00 24 1017.1
20260504191508 69 102 21.0 30.0 0.00 0.00 0.00 24 1017.0
20260504190008 69 72 18.0 32.0 0.00 0.00 0.00 23 1017.3
20260504184504 69 86 19.0 29.0 0.00 0.00 0.00 25 1017.4
20260504183022 68 37 15.0 28.0 0.00 0.00 0.00 28 1017.6
20260504181518 68 63 19.0 26.0 0.00 0.00 0.00 28 1017.8
20260504180017 68 81 16.0 25.0 0.00 0.00 0.00 29 1017.8
20260504174512 67 68 20.0 29.0 0.00 0.00 0.00 30 1018.1
20260504173008 67 58 18.0 25.0 0.00 0.00 0.00 31 1017.9
20260504171506 67 81 17.0 27.0 0.00 0.00 0.00 31 1017.9
20260504081520 55 152 8.0 11.0 0.00 0.00 0.00 60 1017.6